Regional Weather Roundup
Issued by NWS

Home | Current Version | Previous Version | Graphics & Text | Print | Product List | Glossary On
Versions: 1 2 3 4 5 6 7 8 9 10 11 12 13 14 15 16 17 18 19 20 21 22 23 24 25 26 27 28 29 30 31 32 33 34 35 36 37 38 39 40 41 42 43 44 45 46 47 48 49 50
000
ASUS43 KLMK 291610
RWRKY
KENTUCKY REGIONAL WEATHER ROUNDUP
NATIONAL WEATHER SERVICE LOUISVILLE KY
1200 PM EDT FRI AUG 29 2014

NOTE "FAIR" INDICATES FEW OR NO CLOUDS BELOW 12,000 FEET
WITH NO SIGNIFICANT WEATHER AND/OR OBSTRUCTIONS TO VISIBILITY.

KYZ001>023-026-027-061>063-070>075-291700-
WESTERN AND SOUTH CENTRAL KENTUCKY

CITY           SKY/WX    TMP DP  RH WIND       PRES   REMARKS
PADUCAH        SUNNY     88  72  58 SW7       29.99S HX  94
HENDERSON      PTSUNNY   88  73  62 S6        30.00S HX  96
OWENSBORO      SUNNY    N/A N/A N/A S9        30.02S
HOPKINSVILLE   SUNNY     87  70  55 S2        30.02F HX  92
BOWLING GREEN  SUNNY     87  67  51 SW7       30.04F HX  90
GLASGOW        SUNNY     86  67  53 SW6       30.06S
$$

KYZ024-025-028>034-038-045-046-053-291700-
NORTH CENTRAL KENTUCKY

CITY           SKY/WX    TMP DP  RH WIND       PRES   REMARKS
LOUISVILLE/SDF MOSUNNY   84  72  67 S6        30.05S
LOUISVILLE/LOU SUNNY     83  71  67 SE5       30.05F
FORT KNOX      SUNNY     86  72  62 S5        30.04F HX  92
$$

KYZ035>037-039>044-047>052-055>060-089>105-291700-
NORTHEAST KENTUCKY

CITY           SKY/WX    TMP DP  RH WIND       PRES   REMARKS
LEXINGTON      MOSUNNY   85  71  63 S7        30.09F HX  90
COVINGTON      MOSUNNY   82  63  52 SE8       30.09F
FRANKFORT      MOSUNNY   82  70  66 E5        30.07F
$$

KYZ054-064>069-076>088-106>120-291700-
SOUTHEAST KENTUCKY

CITY           SKY/WX    TMP DP  RH WIND       PRES   REMARKS
JACKSON        SUNNY     82  70  66 CALM      30.12F
LONDON         MOSUNNY   84  70  62 VRB5      30.12S
SOMERSET       SUNNY     82  68  61 CALM      30.10F
MIDDLESBORO    SUNNY     84  70  63 S5        30.12F
MONTICELLO     SUNNY     88  71  56 VRB6      30.10F HX  93
$$




USA.gov is the U.S. government's official web portal to all federal, state and local government web resources and services.